Location: Bow
(51.5261°N, 0.0167°W)
Time: 01:43:37
(UTC+00:00)

Cosmos 2298 Rocket - Pass Details

Date: 18 September 2020
Orbit: 777 x 783 km, 74.0° (Epoch: 30 October)

Event Time Altitude Azimuth Distance (km) Brightness Sun altitude
Rises 19:57:55 0° 195° (SSW) 3,259 7.1 -17.5°
Reaches altitude 10° 20:00:18 10° 194° (SSW) 2,335 6.4 -17.8°
Maximum altitude 20:05:35 71° 111° (ESE) 830 3.9 -18.6°
Drops below altitude 10° 20:10:54 10° 28° (NNE) 2,350 6.5 -19.3°
Sets 20:13:18 0° 27° (NNE) 3,282 7.3 -19.6°
